Kuchera_Ratio
0.0 0.0 0.0 0.0 0.0 0.0 0.0 0.0 0.0 0.0 0.0 0.0 0.0 0.0 0.0 0.0 0.0 0.0 0.0 0.0 0.0 2.4 0.0 0.0 0.0 0.0 0.0 0.0 0.8 0.0 0.6 1.2 4.4 9.0 5.0 3.8 3.8 0.0 0.0 0.0 0.0 3.4 7.0 8.4 5.8 11.0 12.0 0.0 0.0 0.0 0.0 0.0 0.0 0.0
0.0 0.0 0.0 0.0 0.0 0.0 0.0 0.0 0.0 0.0 0.0 0.0 0.0 0.0 0.0 0.0 0.0 0.0 0.0 0.0 0.0 0.0 0.0 0.0 0.0 0.0 0.0 0.0 0.0 0.0 0.0 1.8 0.0 4.8 0.0 0.0 2.0 0.0 0.0 4.2 0.0 1.0 0.0 0.0 0.0 0.0 0.0 0.0 0.0 0.0 0.0 0.0 0.0 0.0
0.0 0.0 0.0 0.0 0.0 0.0 0.0 0.0 0.0 0.0 0.0 0.0 0.0 0.0 0.0 0.0 0.0 0.0 0.0 0.0 0.0 3.0 2.6 0.0 0.0 0.0 0.0 0.0 0.0 0.0 0.0 0.0 0.0 0.0 0.0 0.0 3.0 0.0 3.6 0.0 0.0 0.0 0.0 0.0 0.0 0.0 0.0 0.0 0.0 0.0 0.0 0.0 0.0 0.0
0.0 0.0 0.0 0.0 0.0 0.0 0.0 0.0 0.0 0.0 0.0 0.0 0.0 0.0 0.0 0.0 0.0 0.0 0.0 0.0 0.0 1.0 7.8 2.0 0.0 0.0 0.0 0.0 0.0 0.0 0.0 0.0 0.0 0.0 3.6 3.2 3.6 0.0 0.0 0.0 0.0 0.0 0.0 0.0 0.0 0.0 0.0 0.0 0.0 0.0 0.0 0.0 0.0 0.0
0.0 0.0 0.0 0.0 0.0 0.0 0.0 0.0 0.0 0.0 0.0 0.0 0.0 0.0 0.0 0.0 0.0 0.0 0.0 0.0 0.0 0.0 4.8 0.0 0.0 0.0 0.0 0.0 0.0 0.0 0.0 0.0 0.0 2.8 4.2 4.6 0.0 0.0 0.0 0.0 0.0 0.0 0.0 0.0 0.0 0.0 0.0 0.0 0.0 0.0 0.0 0.0 0.0 0.0
0.0 0.0 0.0 0.0 0.0 0.0 0.0 0.0 0.0 0.0 0.0 0.0 0.0 0.0 0.0 0.0 0.0 0.0 4.0 0.0 0.0 0.0 1.6 6.4 0.0 0.0 0.0 0.0 0.0 0.0 0.0 0.0 0.0 1.6 3.2 0.0 0.0 0.0 3.8 1.2 0.0 0.0 0.0 0.0 0.0 0.0 0.0 0.0 0.0 0.0 0.0 0.0 0.0 0.0
0.0 0.0 0.0 0.0 0.0 0.0 0.0 0.0 0.0 0.0 0.0 0.0 0.0 0.0 0.0 0.0 0.0 1.4 1.4 0.0 0.0 0.0 2.2 6.0 1.8 0.0 0.0 0.0 0.0 0.0 0.0 0.0 0.0 1.6 2.8 0.2 0.0 0.0 3.2 3.4 0.0 0.0 0.0 0.0 0.0 0.0 0.0 0.0 0.0 0.0 0.0 0.0 0.0 0.0
0.0 0.0 0.0 0.0 0.0 0.0 0.0 0.0 0.0 0.0 0.0 0.0 0.0 0.0 0.0 0.0 0.0 0.0 0.0 0.0 0.0 0.0 1.6 6.4 5.0 2.4 0.0 1.6 2.6 0.0 1.0 0.0 0.4 3.0 0.4 0.2 0.0 0.0 4.2 0.0 0.0 0.0 0.0 0.0 0.0 0.0 0.0 0.0 0.0 0.0 0.0 0.0 0.0 0.0
0.0 0.0 0.0 0.0 0.0 0.0 0.0 0.0 0.0 0.0 0.0 0.0 0.0 0.0 0.0 0.0 5.0 0.0 0.0 0.0 0.0 0.0 4.4 5.4 7.0 9.8 0.0 0.0 0.0 0.0 0.0 7.4 0.0 5.0 3.0 0.0 0.0 5.8 0.0 0.0 0.0 0.0 0.0 0.0 0.0 0.0 0.0 0.0 0.0 0.0 0.0 0.0 0.0 0.0
0.0 0.0 0.0 0.0 0.0 0.0 0.0 0.0 0.0 0.0 0.0 0.0 0.0 6.0 8.2 2.2 0.0 0.0 0.0 2.6 1.2 0.0 0.0 3.8 0.0 6.8 0.0 0.8 3.8 3.6 2.4 4.6 8.2 4.0 0.0 3.8 0.6 0.0 0.0 0.0 0.0 0.0 0.0 0.0 0.0 0.0 0.0 0.0 0.0 0.0 0.0 0.0 0.0 0.0
0.0 0.0 0.0 0.0 0.0 0.0 0.0 0.0 0.0 0.0 0.0 0.0 6.0 4.8 0.0 0.0 0.0 1.8 7.8 6.2 4.6 8.4 2.2 0.0 0.0 4.8 0.0 3.6 4.6 1.2 6.0 4.2 8.4 2.8 5.8 5.8 5.6 1.2 0.6 0.0 0.0 0.0 0.0 0.0 0.0 0.0 0.0 0.0 0.0 0.0 0.0 0.0 0.0 1.6
0.0 0.0 0.0 0.0 0.0 0.0 0.0 0.0 0.0 0.0 0.0 0.0 0.0 0.0 0.0 1.4 4.8 7.4 8.2 6.8 7.2 7.0 4.0 6.0 3.0 0.4 3.0 0.0 2.4 4.2 5.8 5.4 10.0 0.8 7.2 8.4 11.4 7.2 4.8 5.0 2.6 0.0 0.0 0.2 1.0 2.6 2.8 3.6 0.8 0.0 1.6 4.4 7.2 8.1
0.0 0.0 0.0 0.0 0.0 0.0 0.0 0.0 0.0 0.0 0.0 0.0 0.0 6.0 5.2 11.0 10.6 10.8 13.3 10.6 9.0 5.8 4.4 5.0 6.0 1.8 6.0 3.2 3.6 6.4 8.6 8.2 0.0 9.0 9.0 11.8 8.0 7.0 7.0 5.6 6.8 3.4 3.6 5.0 5.6 7.2 8.4 9.4 8.4 9.4 11.8 10.7 11.5 12.0
0.0 0.0 0.0 0.0 0.0 0.0 0.0 0.0 0.0 0.0 0.0 3.0 8.6 15.1 13.4 14.6 13.0 12.3 10.4 9.0 9.2 4.6 2.8 2.2 5.2 0.0 2.6 4.8 4.8 9.2 4.4 3.6 10.6 11.6 13.2 12.0 12.0 10.2 9.0 8.4 9.6 11.6 11.4 11.6 12.2 11.8 12.8 12.7 12.8 12.8 12.5 12.8 12.3 12.4
0.0 0.0 0.0 0.0 0.0 0.0 0.0 0.0 0.0 0.0 3.4 11.0 9.4 16.2 15.3 13.4 12.9 13.0 12.2 10.6 10.6 8.6 4.8 4.6 1.4 0.0 5.8 8.2 5.6 7.2 10.4 12.6 13.0 13.9 13.1 12.7 12.0 11.2 12.2 12.3 12.5 12.6 12.9 13.2 13.4 14.2 14.4 14.5 14.7 14.4 14.2 14.2 13.7 14.0
0.0 0.0 0.0 0.0 0.0 0.0 0.0 0.0 0.0 0.0 6.2 12.2 14.7 15.3 14.2 13.4 15.1 14.9 15.4 14.6 12.8 12.0 6.2 4.0 5.8 8.6 11.8 8.6 12.6 14.6 13.7 15.0 14.6 13.5 12.7 11.6 12.7 12.7 12.9 13.0 13.4 13.4 13.4 13.8 13.9 14.2 15.1 16.0 16.2 16.2 16.2 16.2 16.3 16.1
0.0 0.0 0.0 0.0 0.0 0.0 0.0 0.0 0.2 8.2 12.4 14.7 16.6 14.6 15.0 15.3 16.3 15.2 14.3 14.7 12.5 11.4 10.4 7.6 12.9 14.5 8.4 13.9 16.2 13.8 15.8 14.6 13.8 12.9 12.4 13.2 13.6 13.4 13.1 13.3 13.7 14.0 14.6 14.8 15.2 15.4 16.0 16.0 16.5 17.1 17.4 17.8 18.2 18.6
0.0 0.0 0.0 0.0 0.0 0.0 0.0 0.0 6.4 11.6 16.1 14.8 16.5 16.2 15.3 15.2 15.4 15.0 14.0 13.0 11.4 10.0 9.4 14.5 10.6 16.0 17.5 18.2 17.2 15.7 13.9 12.9 12.9 13.6 13.9 13.7 13.5 13.3 13.0 13.7 14.0 14.0 14.8 15.2 15.5 15.8 16.0 16.6 17.1 17.5 17.7 18.0 18.4 18.9
0.0 0.0 0.0 0.0 0.0 0.0 4.8 7.2 5.0 15.4 15.6 14.2 14.2 14.2 14.5 15.1 14.6 14.4 14.2 13.7 12.8 10.4 13.2 16.0 18.2 18.4 18.8 17.3 17.6 16.2 15.3 14.4 14.9 15.0 14.9 15.1 14.5 14.6 14.6 14.5 14.6 14.8 15.2 15.4 15.2 15.5 15.8 16.1 16.2 16.5 17.3 18.1 19.7 19.9
0.0 0.0 0.0 0.0 0.0 1.0 9.8 10.0 2.4 12.5 15.3 15.1 14.0 15.7 15.6 16.2 15.4 15.3 15.7 14.7 14.1 15.8 17.3 18.6 19.2 18.8 18.6 17.7 16.8 16.1 14.1 12.8 13.1 14.6 15.5 14.8 14.6 15.0 15.3 15.5 15.9 15.9 16.1 16.5 16.8 17.1 17.4 17.8 17.5 17.5 18.1 18.7 19.6 20.5
0.0 0.0 0.0 0.0 0.0 0.0 6.2 8.8 12.1 11.4 12.8 14.1 13.2 13.2 15.6 14.4 16.7 17.7 17.9 15.5 17.6 18.9 19.7 18.7 18.5 17.6 17.2 16.5 15.7 14.6 14.7 13.8 14.4 13.6 14.8 15.5 15.2 15.2 15.4 15.1 14.9 15.2 16.3 17.0 17.9 18.3 18.5 18.8 18.4 18.1 19.0 19.6 19.6 19.6
0.0 0.0 0.0 0.0 2.4 3.6 6.2 4.6 8.8 8.0 10.8 13.0 13.1 13.3 16.3 17.4 17.6 17.8 15.0 18.4 20.0 20.0 19.0 18.5 18.4 18.0 17.7 18.0 17.2 16.3 15.9 15.3 15.2 15.0 15.4 14.9 15.6 15.6 15.8 15.9 16.2 17.3 17.4 17.6 17.8 18.9 18.9 18.5 18.5 18.7 19.2 19.8 19.5 19.9
0.0 0.0 3.6 4.0 10.2 10.0 13.1 3.2 11.4 10.6 14.4 14.2 13.0 16.1 17.1 17.1 16.3 13.7 19.5 18.7 19.3 18.0 17.7 17.5 17.3 17.4 17.6 17.3 16.7 16.7 16.5 16.0 16.2 16.3 16.4 16.5 16.4 16.4 16.5 16.5 16.6 17.8 18.8 18.8 18.0 18.6 19.4 19.1 19.0 19.2 19.3 19.6 20.2 21.1
5.4 12.6 14.3 15.0 12.5 16.0 12.3 14.5 10.2 12.8 13.2 14.5 16.1 18.6 18.2 16.9 14.9 17.9 21.4 20.1 19.1 17.4 17.8 18.1 16.6 16.7 16.6 17.3 17.8 18.0 17.0 15.7 16.4 16.7 16.5 17.1 18.1 18.3 17.5 18.0 17.9 17.8 18.0 18.1 18.6 19.1 19.2 19.9 19.6 19.4 20.0 20.5 20.9 21.4
12.3 16.4 16.8 17.9 15.7 16.9 18.2 18.4 18.2 16.4 18.8 17.7 19.4 19.7 19.4 15.7 20.2 21.1 22.1 20.4 19.3 19.4 18.9 17.8 17.9 17.9 18.5 18.4 17.9 18.1 17.7 16.6 17.5 18.8 17.7 16.7 17.6 17.8 18.7 18.9 18.9 18.2 17.5 18.8 19.7 19.7 20.1 19.9 20.0 20.4 20.7 21.1 21.9 22.6
14.6 17.0 17.3 17.5 18.6 18.8 19.2 20.0 20.5 21.0 20.0 21.2 21.5 19.5 18.0 19.9 22.6 23.6 21.1 20.1 19.8 19.5 19.4 19.1 18.8 18.6 19.4 19.1 19.5 19.7 19.4 17.2 17.1 19.3 19.7 18.7 17.8 17.9 18.7 19.4 20.0 20.5 18.3 18.2 19.1 20.1 20.5 20.4 20.8 21.1 21.8 22.3 22.9 22.6
17.0 17.9 17.5 17.5 17.5 18.6 19.7 19.9 19.2 20.3 20.8 21.8 21.4 22.3 21.3 23.4 24.4 21.7 18.2 18.5 18.5 18.5 17.9 17.7 17.7 18.4 19.1 19.1 18.7 18.7 18.4 18.7 19.6 20.0 19.4 19.5 19.6 19.6 19.1 19.7 20.8 20.2 18.2 18.2 18.6 19.2 20.4 21.1 21.5 21.6 22.3 22.1 22.0 22.1
17.8 19.1 18.3 18.2 18.4 18.2 19.1 19.9 20.1 20.6 20.8 20.6 20.5 21.3 22.2 22.9 23.4 19.6 18.4 17.6 17.7 17.5 17.9 18.1 18.2 18.3 18.9 19.1 18.7 18.4 18.4 18.4 18.8 18.5 18.5 19.1 19.7 20.0 20.0 20.1 20.1 20.5 19.6 18.8 18.6 18.8 19.2 20.0 20.9 21.4 21.8 22.6 23.8 22.4
19.0 19.3 18.7 18.4 17.9 18.7 19.6 20.2 20.6 20.6 20.1 20.0 21.2 22.7 23.2 20.6 19.5 18.3 17.7 17.1 16.5 17.0 18.5 19.1 19.6 18.9 19.3 19.6 20.3 20.5 20.5 20.1 20.4 21.6 21.9 21.9 21.4 22.1 20.9 20.3 20.1 19.5 19.2 19.8 20.6 20.4 20.5 20.6 20.8 21.0 21.6 22.2 23.5 23.9
19.7 18.6 18.8 18.7 19.3 21.3 21.2 20.8 21.0 21.0 19.9 19.8 19.1 20.2 20.4 20.6 19.8 17.9 17.3 17.6 18.7 20.3 20.6 20.4 20.1 19.4 21.0 20.7 21.7 22.1 22.1 22.1 22.3 20.8 21.3 22.4 22.8 22.2 21.7 21.6 21.3 20.9 19.9 20.3 21.2 22.0 22.6 23.1 23.4 23.8 23.9 24.0 23.0 23.6
19.0 18.9 18.8 19.5 21.4 21.8 21.2 21.7 20.6 20.1 20.0 20.5 19.5 20.8 22.0 20.9 19.9 19.9 20.2 19.9 19.8 19.7 19.4 20.5 21.5 22.1 21.4 21.9 21.4 21.7 23.4 23.0 23.7 23.1 22.0 22.1 22.2 22.3 22.9 23.3 22.5 21.2 21.2 21.7 22.0 22.2 22.9 22.6 22.2 23.0 23.3 24.2 25.7 24.7
19.3 18.9 19.2 20.6 22.1 21.1 20.4 20.2 20.2 20.6 20.3 19.9 21.6 21.4 22.2 20.9 22.8 20.9 21.5 21.0 19.4 20.5 23.7 21.4 21.7 23.6 23.9 23.5 23.5 23.9 24.6 23.8 24.0 24.1 23.4 23.1 23.3 24.0 23.5 23.4 23.2 22.0 22.3 22.8 22.7 23.0 24.5 24.3 23.1 23.6 23.5 25.9 26.0 26.4
20.1 20.2 20.2 21.5 22.3 22.1 21.7 20.8 21.5 22.2 21.5 21.8 23.0 23.8 23.6 22.4 24.4 22.2 20.7 21.9 20.8 21.2 22.0 22.5 23.0 23.3 24.3 24.4 24.1 24.9 24.6 25.1 27.0 26.5 27.4 27.3 27.3 26.5 23.8 23.3 23.2 23.4 24.1 23.4 23.7 23.9 25.4 27.3 25.5 26.3 26.5 27.0 27.3 27.6